TimeCDT,TemperatureF,Dew PointF,Humidity,Sea Level PressureIn,VisibilityMPH,Wind Direction,Wind SpeedMPH,Gust SpeedMPH,PrecipitationIn,Events,Conditions,WindDirDegrees,DateUTC
12:15 AM,46.2,43.3,90,30.15,10.0,Calm,Calm,-,N/A,,Clear,0,2013-09-14 05:15:00
12:35 AM,45.9,43.2,90,30.15,10.0,Calm,Calm,-,N/A,,Clear,0,2013-09-14 05:35:00
12:55 AM,44.8,42.1,90,30.14,10.0,Calm,Calm,-,N/A,,Clear,0,2013-09-14 05:55:00
1:15 AM,45.1,42.6,91,30.15,10.0,Calm,Calm,-,N/A,,Clear,0,2013-09-14 06:15:00
1:35 AM,44.2,41.2,89,30.15,10.0,Calm,Calm,-,N/A,,Clear,0,2013-09-14 06:35:00
1:55 AM,43.7,41.0,90,30.15,10.0,Calm,Calm,-,N/A,,Clear,0,2013-09-14 06:55:00
2:15 AM,43.7,41.2,91,30.15,10.0,Calm,Calm,-,N/A,,Clear,0,2013-09-14 07:15:00
2:55 AM,42.8,40.8,93,30.15,10.0,Calm,Calm,-,N/A,,Clear,0,2013-09-14 07:55:00
3:15 AM,42.8,40.5,91,30.15,10.0,Calm,Calm,-,N/A,,Clear,0,2013-09-14 08:15:00
3:35 AM,41.9,40.1,93,30.15,10.0,Calm,Calm,-,N/A,,Clear,0,2013-09-14 08:35:00
3:55 AM,42.1,40.3,93,30.15,10.0,Calm,Calm,-,N/A,,Clear,0,2013-09-14 08:55:00
4:15 AM,42.6,40.8,93,30.15,10.0,Calm,Calm,-,N/A,,Clear,0,2013-09-14 09:15:00
4:35 AM,41.2,39.2,93,30.15,10.0,Calm,Calm,-,N/A,,Clear,0,2013-09-14 09:35:00
4:55 AM,41.2,39.4,93,30.15,10.0,Calm,Calm,-,N/A,,Clear,0,2013-09-14 09:55:00
5:15 AM,41.2,39.4,93,30.15,10.0,Calm,Calm,-,N/A,,Clear,0,2013-09-14 10:15:00
5:35 AM,40.1,38.3,93,30.15,10.0,Calm,Calm,-,N/A,,Clear,0,2013-09-14 10:35:00
5:55 AM,41.0,39.0,93,30.16,10.0,Calm,Calm,-,N/A,,Clear,0,2013-09-14 10:55:00
6:15 AM,40.8,38.7,92,30.16,10.0,Calm,Calm,-,N/A,,Clear,0,2013-09-14 11:15:00
6:35 AM,41.0,39.2,93,30.16,10.0,Calm,Calm,-,N/A,,Clear,0,2013-09-14 11:35:00
6:55 AM,40.3,38.3,93,30.17,10.0,Calm,Calm,-,N/A,,Clear,0,2013-09-14 11:55:00
7:15 AM,41.4,39.4,93,30.17,10.0,Calm,Calm,-,N/A,,Clear,0,2013-09-14 12:15:00
7:35 AM,43.7,41.9,93,30.16,10.0,Calm,Calm,-,N/A,,Clear,0,2013-09-14 12:35:00
7:55 AM,46.2,44.4,93,30.16,10.0,Calm,Calm,-,N/A,,Clear,0,2013-09-14 12:55:00
8:15 AM,48.6,46.0,91,30.16,10.0,SSW,4.6,-,N/A,,Clear,200,2013-09-14 13:15:00
8:35 AM,51.4,46.2,82,30.16,10.0,SSW,3.5,-,N/A,,Clear,210,2013-09-14 13:35:00
8:55 AM,54.9,47.3,76,30.16,10.0,Calm,Calm,-,N/A,,Clear,0,2013-09-14 13:55:00
9:15 AM,57.9,46.8,66,30.16,10.0,SW,4.6,-,N/A,,Clear,220,2013-09-14 14:15:00
9:35 AM,60.4,45.1,57,30.16,10.0,WSW,8.1,-,N/A,,Clear,240,2013-09-14 14:35:00
9:55 AM,61.5,44.1,53,30.16,10.0,SW,9.2,-,N/A,,Clear,220,2013-09-14 14:55:00
10:15 AM,63.5,44.1,49,30.15,10.0,SSW,8.1,-,N/A,,Clear,200,2013-09-14 15:15:00
10:35 AM,64.8,43.5,46,30.14,10.0,SSW,6.9,-,N/A,,Clear,200,2013-09-14 15:35:00
10:55 AM,65.8,41.7,41,30.13,10.0,SW,4.6,-,N/A,,Clear,230,2013-09-14 15:55:00
11:15 AM,67.5,41.4,39,30.13,10.0,SW,9.2,-,N/A,,Clear,220,2013-09-14 16:15:00
11:35 AM,68.2,40.6,37,30.12,10.0,SSW,9.2,-,N/A,,Clear,200,2013-09-14 16:35:00
11:55 AM,68.7,37.9,32,30.11,10.0,SW,11.5,-,N/A,,Clear,230,2013-09-14 16:55:00
12:15 PM,70.5,39.2,32,30.10,10.0,South,9.2,-,N/A,,Clear,190,2013-09-14 17:15:00
12:35 PM,69.4,38.7,32,30.09,10.0,South,9.2,18.4,N/A,,Clear,190,2013-09-14 17:35:00
12:55 PM,71.1,38.3,30,30.08,10.0,SSW,12.7,16.1,N/A,,Clear,200,2013-09-14 17:55:00
1:15 PM,72.0,38.8,30,30.08,10.0,SSW,11.5,16.1,N/A,,Clear,200,2013-09-14 18:15:00
1:35 PM,72.3,37.9,29,30.06,10.0,SSW,5.8,9.2,N/A,,Clear,210,2013-09-14 18:35:00
1:55 PM,72.3,37.8,28,30.05,10.0,SSW,9.2,-,N/A,,Clear,200,2013-09-14 18:55:00
2:15 PM,72.0,39.2,30,30.04,10.0,South,9.2,-,N/A,,Clear,180,2013-09-14 19:15:00
2:35 PM,72.5,39.2,30,30.03,10.0,SSW,11.5,-,N/A,,Clear,200,2013-09-14 19:35:00
2:55 PM,73.4,39.2,29,30.03,10.0,South,12.7,-,N/A,,Clear,190,2013-09-14 19:55:00
3:15 PM,73.9,39.2,28,30.03,10.0,SW,11.5,18.4,N/A,,Clear,220,2013-09-14 20:15:00
3:35 PM,74.1,39.7,29,30.02,10.0,South,11.5,18.4,N/A,,Clear,170,2013-09-14 20:35:00
3:55 PM,73.4,39.7,30,30.02,10.0,SSW,12.7,-,N/A,,Clear,200,2013-09-14 20:55:00
4:15 PM,72.3,40.5,32,30.01,10.0,SSW,6.9,-,N/A,,Clear,200,2013-09-14 21:15:00
4:35 PM,71.6,40.8,33,30.01,10.0,SSW,9.2,-,N/A,,Clear,200,2013-09-14 21:35:00
4:55 PM,70.9,42.4,36,30.00,10.0,SSE,8.1,-,N/A,,Clear,160,2013-09-14 21:55:00
5:15 PM,70.7,44.1,38,29.99,10.0,SSE,6.9,-,N/A,,Clear,160,2013-09-14 22:15:00
5:35 PM,70.0,45.3,41,29.99,10.0,SSE,6.9,-,N/A,,Clear,160,2013-09-14 22:35:00
5:55 PM,70.0,45.3,41,29.99,10.0,SSW,6.9,-,N/A,,Clear,200,2013-09-14 22:55:00
6:15 PM,69.3,44.6,41,30.00,10.0,SSW,5.8,-,N/A,,Clear,200,2013-09-14 23:15:00
6:35 PM,67.5,45.5,45,30.00,10.0,SSE,4.6,-,N/A,,Clear,160,2013-09-14 23:35:00
6:55 PM,66.2,46.6,49,29.99,10.0,South,4.6,-,N/A,,Clear,170,2013-09-14 23:55:00
7:15 PM,65.1,47.3,52,30.00,10.0,Calm,Calm,-,N/A,,Clear,0,2013-09-15 00:15:00
7:35 PM,64.0,47.7,55,30.01,10.0,Calm,Calm,-,N/A,,Clear,0,2013-09-15 00:35:00
7:55 PM,62.8,50.0,63,30.01,10.0,Calm,Calm,-,N/A,,Clear,0,2013-09-15 00:55:00
8:15 PM,61.3,48.2,62,30.01,10.0,Calm,Calm,-,N/A,,Clear,0,2013-09-15 01:15:00
8:35 PM,60.8,49.3,66,30.00,10.0,Calm,Calm,-,N/A,,Clear,0,2013-09-15 01:35:00
8:55 PM,60.1,48.9,67,29.98,10.0,Calm,Calm,-,N/A,,Clear,0,2013-09-15 01:55:00
9:15 PM,61.3,48.6,63,29.99,10.0,Calm,Calm,-,N/A,,Clear,0,2013-09-15 02:15:00
9:35 PM,61.7,48.7,62,29.99,10.0,Calm,Calm,-,N/A,,Clear,0,2013-09-15 02:35:00
9:55 PM,61.2,49.3,65,29.99,10.0,Calm,Calm,-,N/A,,Scattered Clouds,0,2013-09-15 02:55:00
10:15 PM,60.6,50.0,68,29.99,10.0,Calm,Calm,-,N/A,,Scattered Clouds,0,2013-09-15 03:15:00
10:35 PM,59.9,49.1,67,29.99,10.0,Calm,Calm,-,N/A,,Scattered Clouds,0,2013-09-15 03:35:00
10:55 PM,60.3,49.5,68,29.99,10.0,Calm,Calm,-,N/A,,Scattered Clouds,0,2013-09-15 03:55:00
11:15 PM,59.4,49.6,70,30.01,10.0,Calm,Calm,-,N/A,,Clear,0,2013-09-15 04:15:00
11:35 PM,59.9,49.3,68,30.00,10.0,Calm,Calm,-,N/A,,Scattered Clouds,0,2013-09-15 04:35:00
11:55 PM,59.5,49.6,70,29.99,10.0,Calm,Calm,-,N/A,,Mostly Cloudy,0,2013-09-15 04:55:00